Regional Weather Roundup
Issued by NWS

Home | Current Version | Previous Version | Text Only | Print | Product List | Glossary On
Versions: 1 2 3 4 5 6 7 8 9 10 11 12 13 14 15 16 17 18 19 20 21 22 23 24 25 26 27 28 29 30 31 32 33 34 35 36 37 38 39 40 41 42 43 44 45 46 47 48 49 50
657
ASUS43 KLMK 091210
RWRKY
KENTUCKY REGIONAL WEATHER ROUNDUP
NATIONAL WEATHER SERVICE LOUISVILLE KY
700 AM EST FRI DEC 09 2016

NOTE "FAIR" INDICATES FEW OR NO CLOUDS BELOW 12,000 FEET
WITH NO SIGNIFICANT WEATHER AND/OR OBSTRUCTIONS TO VISIBILITY.

KYZ001>023-026-027-061>063-070>075-091300-
WESTERN AND SOUTH CENTRAL KENTUCKY

CITY           SKY/WX    TMP DP  RH WIND       PRES   REMARKS
PADUCAH        PTCLDY    18  12  77 W6        30.62R WCI  10
HENDERSON      CLEAR     19  10  68 NW3       30.60S
OWENSBORO      PTCLDY    20  14  77 NW7       30.60R WCI  11
HOPKINSVILLE   MOCLDY    22  16  76 NW5       30.57S WCI  16
BOWLING GREEN  CLOUDY    26  14  60 NW5       30.58R WCI  20
GLASGOW        CLOUDY    24  15  68 NW6       30.56R WCI  17
$$

KYZ024-025-028>034-038-045-046-053-091300-
NORTH CENTRAL KENTUCKY

CITY           SKY/WX    TMP DP  RH WIND       PRES   REMARKS
LOUISVILLE/SDF FLURRIES  24  12  60 NW12      30.57R WCI  13
LOUISVILLE/LOU CLOUDY    24  12  60 NW6       30.57R WCI  17
FORT KNOX      CLOUDY    22  12  66 NW2       30.54R
$$

KYZ035>037-039>044-047>052-055>060-089>105-091300-
NORTHEAST KENTUCKY

CITY           SKY/WX    TMP DP  RH WIND       PRES   REMARKS
LEXINGTON      CLOUDY    21  12  68 W8        30.52R WCI  11
COVINGTON      FLURRIES  21  12  68 W9        30.49R WCI  11
FRANKFORT      CLOUDY    22  13  68 W6        30.53R WCI  14
$$

KYZ054-064>069-076>088-106>120-091300-
SOUTHEAST KENTUCKY

CITY           SKY/WX    TMP DP  RH WIND       PRES   REMARKS
JACKSON        FLURRIES  21  15  78 NW5       30.46R WCI  15
LONDON         CLOUDY    22   9  57 N8        30.49S WCI  12
SOMERSET       FLURRIES  23  14  68 NW6       30.54R WCI  16
MIDDLESBORO    CLOUDY    24  15  68 NE9       30.49R WCI  14
MONTICELLO     CLOUDY    23  14  68 N16       30.55R WCI  10
$$





USA.gov is the U.S. government's official web portal to all federal, state and local government web resources and services.